Location: Härggis
(46.9540°N, 8.4897°E)
Time: 01:51:19
(UTC+00:00)

CZ-4C R/B - Pass Details

Date: 27 May 2022
Orbit: 582 x 1419 km, 63.4° (Epoch: 26 June)

Event Time Altitude Azimuth Distance (km) Brightness Sun altitude
Rises 00:47:56 0° 313° (NW) 3,944 6.0 -19.2°
Reaches altitude 10° 00:50:51 10° 302° (WNW) 3,104 5.2 -19.0°
Maximum altitude 00:57:07 29° 247° (WSW) 2,206 3.9 -18.6°
Enters shadow 00:59:28 25° 221° (SW) 2,421 4.0 -18.4°
